| time (UTC) | temp C | wind direction | speed KPH | gust KPH | rain 1hr cm | rain 24hr cm | rain mn cm | humidity % | barometer mb |
| 20260509173048 | 14 | 292 | 11.3 | 32.2 | 0.00 | 0.00 | 0.00 | 29 | 1000.0 |
| 20260509171542 | 13 | 296 | 12.9 | 30.6 | 0.00 | 0.00 | 0.00 | 27 | 999.7 |
| 20260509170042 | 13 | 301 | 11.3 | 35.4 | 0.00 | 0.00 | 0.00 | 31 | 999.6 |
| 20260509164539 | 13 | 260 | 8.0 | 30.6 | 0.00 | 0.00 | 0.00 | 30 | 999.5 |
| 20260509163042 | 13 | 260 | 11.3 | 30.6 | 0.00 | 0.00 | 0.00 | 27 | 999.2 |
| 20260509161549 | 15 | 283 | 14.5 | 35.4 | 0.00 | 0.00 | 0.00 | 26 | 998.8 |
| 20260509160042 | 15 | 334 | 8.0 | 30.6 | 0.00 | 0.00 | 0.00 | 29 | 998.4 |
| 20260509154540 | 13 | 254 | 8.0 | 20.9 | 0.00 | 0.00 | 0.00 | 37 | 998.3 |
| 20260509153051 | 13 | 326 | 3.2 | 27.4 | 0.00 | 0.00 | 0.00 | 44 | 998.4 |
| 20260509151544 | 13 | 347 | 6.4 | 20.9 | 0.00 | 0.00 | 0.00 | 43 | 998.2 |
| 20260509150044 | 13 | 335 | 9.7 | 20.9 | 0.00 | 0.00 | 0.00 | 48 | 998.2 |
| 20260509144542 | 12 | 325 | 9.7 | 20.9 | 0.00 | 0.00 | 0.00 | 48 | 998.2 |
| 20260509143042 | 11 | 328 | 1.6 | 14.5 | 0.00 | 0.00 | 0.00 | 52 | 997.9 |
| 20260509141541 | 11 | 0 | 3.2 | 20.9 | 0.00 | 0.00 | 0.00 | 52 | 997.6 |
| 20260509140045 | 11 | 347 | 8.0 | 19.3 | 0.00 | 0.00 | 0.00 | 50 | 997.6 |
| 20260509134542 | 11 | 296 | 3.2 | 14.5 | 0.00 | 0.00 | 0.00 | 55 | 997.4 |
| 20260509133040 | 11 | 327 | 8.0 | 14.5 | 0.00 | 0.00 | 0.00 | 56 | 997.2 |
| 20260509131540 | 10 | 339 | 4.8 | 14.5 | 0.00 | 0.00 | 0.00 | 62 | 997.4 |
| 20260509130053 | 8 | 340 | 6.4 | 12.9 | 0.00 | 0.00 | 0.00 | 70 | 997.3 |
| 20260509124552 | 7 | 308 | 1.6 | 8.0 | 0.00 | 0.00 | 0.00 | 76 | 997.4 |
| 20260509123044 | 7 | 229 | 0.0 | 6.4 | 0.00 | 0.00 | 0.00 | 79 | 997.3 |
| 20260509121545 | 7 | 215 | 0.0 | 6.4 | 0.00 | 0.00 | 0.00 | 90 | 997.2 |
| 20260509120041 | 6 | 0 | 0.0 | 6.4 | 0.00 | 0.00 | 0.00 | 93 | 997.3 |
| 20260509114557 | 6 | 0 | 0.0 | 1.6 | 0.00 | 0.00 | 0.00 | 93 | 996.9 |
| 20260509113043 | 5 | 0 | 0.0 | 4.8 | 0.00 | 0.00 | 0.00 | 93 | 996.7 |
| 20260509111543 | 5 | 210 | 0.0 | 6.4 | 0.00 | 0.00 | 0.00 | 93 | 996.5 |
| 20260509110045 | 4 | 210 | 0.0 | 8.0 | 0.00 | 0.00 | 0.00 | 92 | 996.5 |
| 20260509104542 | 4 | 211 | 3.2 | 9.7 | 0.00 | 0.00 | 0.00 | 92 | 996.5 |
| 20260509103050 | 3 | 0 | 0.0 | 11.3 | 0.00 | 0.00 | 0.00 | 93 | 996.6 |
| 20260509101556 | 3 | 189 | 0.0 | 4.8 | 0.00 | 0.00 | 0.00 | 90 | 996.6 |
| 20260509100205 | 3 | 187 | 4.8 | 9.7 | 0.00 | 0.00 | 0.00 | 90 | 996.7 |
| 20260509094553 | 3 | 0 | 3.2 | 8.0 | 0.00 | 0.00 | 0.00 | 91 | 997.0 |
| 20260509093043 | 3 | 0 | 0.0 | 6.4 | 0.00 | 0.00 | 0.00 | 90 | 997.3 |
| 20260509091543 | 3 | 0 | 0.0 | 1.6 | 0.00 | 0.00 | 0.00 | 89 | 997.5 |
| 20260509090048 | 3 | 0 | 0.0 | 4.8 | 0.00 | 0.00 | 0.00 | 90 | 997.6 |
| 20260509084547 | 3 | 0 | 0.0 | 0.0 | 0.00 | 0.00 | 0.00 | 89 | 997.4 |
| 20260509083054 | 3 | 0 | 0.0 | 0.0 | 0.00 | 0.00 | 0.00 | 88 | 997.5 |
| 20260509081541 | 2 | 0 | 0.0 | 0.0 | 0.00 | 0.00 | 0.00 | 89 | 997.9 |
| 20260509080048 | 2 | 0 | 0.0 | 3.2 | 0.00 | 0.00 | 0.00 | 88 | 997.9 |
| 20260509074551 | 2 | 0 | 0.0 | 0.0 | 0.00 | 0.00 | 0.00 | 88 | 998.0 |
| 20260509073042 | 2 | 0 | 0.0 | 3.2 | 0.00 | 0.00 | 0.00 | 88 | 998.3 |
| 20260509071544 | 2 | 141 | 0.0 | 4.8 | 0.00 | 0.00 | 0.00 | 89 | 998.7 |
| 20260509070043 | 2 | 0 | 0.0 | 4.8 | 0.00 | 0.00 | 0.00 | 89 | 998.8 |
| 20260509064543 | 1 | 0 | 0.0 | 3.2 | 0.00 | 0.00 | 0.00 | 88 | 999.1 |
| 20260509063040 | 2 | 142 | 1.6 | 4.8 | 0.00 | 0.00 | 0.00 | 88 | 999.4 |
| 20260509061537 | 2 | 142 | 0.0 | 3.2 | 0.00 | 0.00 | 0.00 | 88 | 999.6 |
| 20260509060059 | 2 | 0 | 0.0 | 3.2 | 0.00 | 0.00 | 0.00 | 87 | 999.5 |
| 20260509054547 | 2 | 0 | 0.0 | 4.8 | 0.00 | 0.00 | 0.00 | 87 | 1000.0 |
| 20260509053105 | 2 | 0 | 0.0 | 0.0 | 0.00 | 0.00 | 0.00 | 87 | 1000.3 |
| 20260509051547 | 2 | 0 | 0.0 | 3.2 | 0.00 | 0.00 | 0.00 | 87 | 1000.5 |
| 20260509050039 | 2 | 0 | 0.0 | 6.4 | 0.00 | 0.00 | 0.00 | 86 | 1000.8 |
| 20260509044611 | 2 | 142 | 4.8 | 11.3 | 0.00 | 0.00 | 0.00 | 86 | 1001.0 |
| 20260509043120 | 2 | 0 | 0.0 | 4.8 | 0.00 | 0.00 | 0.00 | 87 | 1000.8 |
| 20260509041542 | 2 | 133 | 0.0 | 3.2 | 0.00 | 0.00 | 0.00 | 86 | 1001.0 |
| 20260509040043 | 2 | 133 | 0.0 | 4.8 | 0.00 | 0.00 | 0.00 | 86 | 1001.3 |
| 20260509034544 | 2 | 0 | 1.6 | 4.8 | 0.00 | 0.00 | 0.00 | 87 | 1001.6 |
| 20260509033047 | 2 | 133 | 1.6 | 4.8 | 0.00 | 0.00 | 0.00 | 86 | 1001.9 |
| 20260509031557 | 3 | 0 | 0.0 | 3.2 | 0.00 | 0.00 | 0.00 | 85 | 1002.2 |
| 20260509030101 | 3 | 0 | 0.0 | 0.0 | 0.00 | 0.00 | 0.00 | 85 | 1002.6 |
| 20260509024543 | 3 | 133 | 3.2 | 4.8 | 0.00 | 0.00 | 0.00 | 83 | 1002.8 |
| 20260509023040 | 3 | 133 | 0.0 | 4.8 | 0.00 | 0.00 | 0.00 | 81 | 1003.0 |
| 20260509021541 | 4 | 0 | 0.0 | 3.2 | 0.00 | 0.00 | 0.00 | 81 | 1003.1 |
| 20260509020047 | 4 | 0 | 0.0 | 3.2 | 0.00 | 0.00 | 0.00 | 80 | 1003.1 |
| 20260509014544 | 5 | 133 | 0.0 | 4.8 | 0.00 | 0.00 | 0.00 | 78 | 1003.1 |
| 20260509013043 | 6 | 133 | 0.0 | 4.8 | 0.00 | 0.00 | 0.00 | 75 | 1003.0 |
| 20260509011540 | 7 | 0 | 0.0 | 4.8 | 0.00 | 0.00 | 0.00 | 72 | 1003.0 |
| 20260509010040 | 8 | 0 | 0.0 | 4.8 | 0.00 | 0.00 | 0.00 | 65 | 1002.9 |
| 20260509004552 | 8 | 0 | 0.0 | 6.4 | 0.00 | 0.00 | 0.00 | 63 | 1002.8 |
| 20260509003049 | 9 | 133 | 1.6 | 8.0 | 0.00 | 0.00 | 0.00 | 62 | 1002.7 |
| 20260509001542 | 10 | 152 | 0.0 | 3.2 | 0.00 | 0.00 | 0.00 | 60 | 1002.8 |
| 20260509000041 | 10 | 153 | 1.6 | 8.0 | 0.00 | 0.00 | 0.00 | 59 | 1002.8 |
| 20260508234542 | 10 | 174 | 3.2 | 14.5 | 0.00 | 0.00 | 0.00 | 57 | 1002.9 |
| 20260508233042 | 10 | 171 | 0.0 | 8.0 | 0.00 | 0.00 | 0.00 | 55 | 1003.1 |
| 20260508231540 | 11 | 167 | 3.2 | 20.9 | 0.00 | 0.00 | 0.00 | 53 | 1003.1 |
| 20260508230038 | 11 | 184 | 6.4 | 17.7 | 0.00 | 0.00 | 0.00 | 56 | 1003.0 |
| 20260508224556 | 12 | 212 | 4.8 | 16.1 | 0.00 | 0.00 | 0.00 | 54 | 1003.3 |
| 20260508223049 | 12 | 195 | 4.8 | 16.1 | 0.00 | 0.00 | 0.00 | 52 | 1003.5 |
| 20260508221541 | 13 | 214 | 4.8 | 17.7 | 0.00 | 0.00 | 0.00 | 48 | 1003.7 |
| 20260508220051 | 13 | 0 | 3.2 | 14.5 | 0.00 | 0.00 | 0.00 | 45 | 1003.7 |
| 20260508214540 | 13 | 208 | 6.4 | 16.1 | 0.00 | 0.00 | 0.00 | 46 | 1003.9 |
| 20260508213044 | 13 | 210 | 8.0 | 17.7 | 0.00 | 0.00 | 0.00 | 44 | 1004.0 |
| 20260508211548 | 13 | 180 | 6.4 | 22.5 | 0.00 | 0.00 | 0.00 | 44 | 1004.1 |
| 20260508210046 | 13 | 197 | 9.7 | 25.7 | 0.00 | 0.00 | 0.00 | 49 | 1004.2 |
| 20260508204541 | 13 | 210 | 8.0 | 22.5 | 0.00 | 0.03 | 0.00 | 48 | 1004.3 |
| 20260508203043 | 14 | 206 | 9.7 | 22.5 | 0.00 | 0.03 | 0.00 | 46 | 1004.4 |
| 20260508201539 | 13 | 200 | 11.3 | 27.4 | 0.00 | 0.03 | 0.00 | 45 | 1004.4 |
| 20260508200043 | 14 | 179 | 11.3 | 27.4 | 0.00 | 0.03 | 0.00 | 44 | 1004.6 |
| 20260508194543 | 14 | 180 | 12.9 | 27.4 | 0.00 | 0.03 | 0.00 | 40 | 1004.7 |
| 20260508193041 | 14 | 165 | 11.3 | 27.4 | 0.00 | 0.03 | 0.00 | 43 | 1004.9 |
| 20260508191547 | 14 | 202 | 6.4 | 22.5 | 0.00 | 0.03 | 0.00 | 43 | 1005.1 |
| 20260508190046 | 13 | 199 | 8.0 | 17.7 | 0.00 | 0.03 | 0.00 | 60 | 1005.1 |
| 20260508184546 | 12 | 245 | 4.8 | 17.7 | 0.00 | 0.03 | 0.00 | 56 | 1005.3 |
| 20260508183045 | 12 | 249 | 4.8 | 17.7 | 0.00 | 0.03 | 0.00 | 58 | 1005.6 |
| 20260508181554 | 11 | 248 | 8.0 | 17.7 | 0.00 | 0.03 | 0.00 | 61 | 1005.8 |
| 20260508180041 | 11 | 216 | 4.8 | 17.7 | 0.00 | 0.03 | 0.00 | 62 | 1006.2 |
| 20260508174544 | 11 | 218 | 8.0 | 16.1 | 0.00 | 0.03 | 0.00 | 62 | 1006.4 |